Weather History for KLXV - August, 2013

Change the Weather History Date:

Tuesday, August 20, 2013

  Actual Average Record
Temperature  
Mean Temperature 55 °F -  
Max Temperature 72 °F 67 °F 76 °F (1981)
Min Temperature 37 °F 37 °F 32 °F (1978)
Degree Days  
Heating Degree Days 10 13  
Month to date heating degree days 246 233  
Since 1 June heating degree days 884 1049  
Since 1 July heating degree days 513 569  
Cooling Degree Days 0 0  
Month to date cooling degree days 0 0  
Year to date cooling degree days 0 0  
Since 1 June cooling degree days 0 0  
Growing Degree Days 4 (Base 50)    
Moisture  
Dew Point 38 °F    
Average Humidity 56    
Maximum Humidity 85    
Minimum Humidity 26    
Precipitation  
Precipitation 0.09 in 0.06 in 0.55 in (1984)
Month to date precipitation 1.03 1.36  
Year to date precipitation 11.26 8.28  
Sea Level Pressure  
Sea Level Pressure 30.04 in    
Wind  
Wind Speed 5 mph (NNE)    
Max Wind Speed 22 mph    
Max Gust Speed 28 mph    
Visibility 10 miles    
Events Rain    
T = Trace of Precipitation, MM = Missing Value Source: NWS Daily Summary

Daily Weather History Graph

Daily Weather History Graph

Search for Another Location

Airport or City:

Trip Planner

Search our weather history database for the weather conditions in past years. The results will help you decide how hot, cold, wet, or windy it might be!

Date:

Astronomy

Aug. 20, 2013 Rise Set
Actual Time 6:23 AM MDT 7:53 PM MDT
Civil Twilight 5:54 AM MDT 8:21 PM MDT
Nautical Twilight 5:20 AM MDT 8:55 PM MDT
Astronomical Twilight 4:44 AM MDT 9:30 PM MDT
Moon 7:27 PM MDT (8/20) 5:56 AM MDT (8/20)
Length of Visible Light 14h 26m
Length of Day
13h 30m
Full, 100% of the Moon is Illuminated
Aug 20
Full
Aug 20
Full
Aug 28
Last Quarter
Sep 5
New
Sep 12
First Quarter

Hourly Weather History & Observations

Time (MDT) Temp. Windchill Dew Point Humidity Pressure Visibility Wind Dir Wind Speed Gust Speed Precip Events Conditions
12:53 AM 46.9 °F - 37.9 °F 71% 30.00 in 10.0 mi ENE 5.8 mph - N/A   Clear
1:53 AM 44.1 °F 41.5 °F 37.0 °F 76% 30.01 in 10.0 mi NE 4.6 mph - N/A   Clear
2:53 AM 46.9 °F - 36.0 °F 66% 29.96 in 10.0 mi NE 3.5 mph - N/A   Clear
3:53 AM 39.0 °F 36.8 °F 35.1 °F 86% 30.02 in 10.0 mi NE 3.5 mph - N/A   Clear
4:53 AM 39.9 °F - 36.0 °F 86% 30.03 in 10.0 mi Calm Calm - N/A   Clear
5:53 AM 41.0 °F 39.0 °F 36.0 °F 82% 30.04 in 10.0 mi NE 3.5 mph - N/A   Clear
6:53 AM 39.0 °F 35.7 °F 35.1 °F 86% 30.08 in 10.0 mi NE 4.6 mph - N/A   Clear
7:53 AM 48.9 °F - 39.0 °F 69% 30.03 in 10.0 mi Calm Calm - N/A   Clear
8:53 AM 55.9 °F - 39.9 °F 55% 30.02 in 10.0 mi Calm Calm - N/A   Clear
9:53 AM 64.0 °F - 37.9 °F 38% 29.97 in 10.0 mi Calm Calm - N/A   Clear
10:53 AM 68.0 °F - 36.0 °F 31% 29.95 in 10.0 mi Variable 3.5 mph - N/A   Clear
11:53 AM 66.9 °F - 33.1 °F 28% 29.95 in 10.0 mi ESE 6.9 mph - N/A   Clear
12:53 PM 66.0 °F - 39.0 °F 37% 29.96 in 10.0 mi Calm Calm - 0.00 in Rain Light Rain
1:12 PM 64.4 °F - 33.8 °F 32% 30.48 in 2.5 mi Calm Calm - 0.08 in Rain Rain
1:19 PM 60.8 °F - 41.0 °F 48% 30.47 in 8.0 mi ESE 5.8 mph - 0.08 in Rain Light Rain
1:53 PM 66.0 °F - 41.0 °F 40% 29.98 in 10.0 mi Calm Calm - 0.08 in   Mostly Cloudy
2:53 PM 68.0 °F - 32.0 °F 26% 29.93 in 10.0 mi Calm Calm - N/A   Partly Cloudy
3:53 PM 64.9 °F - 37.0 °F 36% 30.00 in 10.0 mi NNW 10.4 mph 18.4 mph N/A   Scattered Clouds
4:53 PM 64.0 °F - 37.9 °F 38% 30.01 in 10.0 mi NNW 8.1 mph - N/A   Overcast
5:53 PM 61.0 °F - 37.9 °F 42% 30.03 in 10.0 mi North 19.6 mph 26.5 mph N/A   Overcast
6:53 PM 55.0 °F - 42.1 °F 62% 30.09 in 10.0 mi North 18.4 mph 24.2 mph 0.01 in Rain Light Rain
7:53 PM 55.9 °F - 42.1 °F 60% 30.04 in 10.0 mi North 11.5 mph - 0.00 in   Overcast
8:53 PM 54.0 °F - 43.0 °F 66% 30.04 in 10.0 mi NNW 3.5 mph - N/A   Overcast
9:53 PM 53.1 °F - 42.1 °F 66% 29.99 in 10.0 mi North 5.8 mph - N/A   Mostly Cloudy
10:53 PM 51.1 °F - 42.1 °F 71% 29.97 in 10.0 mi Calm Calm - N/A   Partly Cloudy
11:53 PM 48.0 °F - 41.0 °F 77% 29.99 in 10.0 mi ENE 5.8 mph - N/A   Clear